Vertical_Velocity
-2 -2 -2 -2 -2 -2 -1 -1 -1 -1 -1 -1 -1 -1 -1 -0 -0 0 0 1 0 0 0 1 1 1 1 1 0 0 0 0 0 0 0 0 0 1 1 1 2 2 2 2 2 2 1 1 1 1 1 1 0 0 0 0 0 -0 -0 -0 -0 -0 -0 0 0 0 0 0 -0 -0 -0 -0 -0 0 0 -0 -0 -0 -0 -1 -1 -1 -0 1 1 1 1 0 0 -0 -1 -1 -0 -0 -0 0 1 0 0 -0 0 0 0
-1 -1 -1 -1 -1 -1 -1 -1 -1 -2 -2 -2 -2 -2 -2 -2 -2 -2 -1 -1 -1 -1 -0 -0 0 0 1 1 0 0 0 0 0 0 0 0 1 1 1 2 2 3 2 2 2 2 1 1 1 1 1 1 1 0 -0 -0 -0 -0 -1 -1 -1 -0 -0 -0 -0 -0 -0 -0 -0 -0 -0 0 1 1 1 1 0 -0 -0 -0 -1 -1 -1 -0 0 0 0 -1 -1 -0 -0 -1 -1 -0 0 1 1 1 1 -0 -0 0 -0
-2 -1 -1 -2 -1 -1 -0 -0 -1 -2 -2 -2 -2 -2 -2 -2 -2 -2 -2 -2 -2 -2 -2 -2 -1 -1 -0 -0 -0 -0 -0 -0 -0 -0 -0 -0 -0 0 1 1 2 2 2 1 1 1 1 0 0 0 1 1 1 0 -0 -0 -0 -1 -1 -1 -1 -0 -0 -0 -0 -0 -0 0 0 0 -0 0 1 1 1 1 1 1 0 -0 -0 -1 -0 -0 -0 -0 0 -0 -0 1 2 0 -0 -1 -0 1 1 2 2 1 0 -0 -0
-2 -2 -2 -2 -2 -1 -0 -1 -1 -1 -2 -2 -2 -2 -2 -2 -2 -2 -2 -2 -2 -2 -2 -2 -2 -2 -2 -2 -1 -1 -0 0 -0 -0 -1 -1 -1 -0 0 1 2 2 1 0 0 0 0 0 0 0 0 0 0 0 -0 -0 -0 -0 -0 -0 -0 -0 -0 -0 0 0 0 0 0 1 0 0 -0 -0 0 1 1 1 1 1 -0 -1 -0 0 0 0 -0 2 3 2 2 1 0 -1 -2 -1 0 1 2 1 1 0 -0
-2 -2 -3 -3 -2 -2 -1 -1 -1 -0 -0 -1 -1 -1 -1 -1 -1 -1 -1 -1 -1 -1 -1 -1 -1 -2 -2 -2 -2 -2 -1 -0 0 0 -0 -0 -1 -0 -0 1 1 2 1 0 0 1 1 1 1 1 0 0 0 -0 -0 -0 -0 -0 -0 -0 -0 -0 -0 0 0 0 1 1 1 1 1 0 0 0 0 0 0 0 1 0 0 0 0 0 0 -0 -1 -1 -0 0 1 1 1 -0 -2 -1 -1 -0 0 1 1 0 -1
-2 -2 -2 -2 -2 -2 -1 -1 -1 -0 0 -0 -0 -1 -1 -1 -1 -1 -1 -1 -1 -1 -1 -1 -1 -1 -1 -1 -2 -2 -2 -1 -1 -0 0 -0 -0 -1 -0 0 1 1 1 0 0 1 1 1 1 1 0 0 -0 -0 0 -0 -0 -0 -0 -0 -0 -0 -0 0 0 0 1 1 1 1 0 0 0 -0 0 0 0 0 1 0 0 1 1 1 1 1 -0 -2 -2 -1 0 1 1 1 0 -0 -0 -0 -0 -0 0 -0 -1
-2 -2 -2 -2 -1 -1 -1 -1 -1 -1 -1 -1 -1 -1 -1 -1 -1 -1 -1 -1 -1 -1 -1 -1 -1 -1 -0 -0 -1 -1 -1 -2 -2 -1 -1 -1 -1 -1 -1 -1 -0 0 1 0 0 0 1 1 0 0 0 0 0 0 0 0 0 0 -0 -0 -0 -0 0 0 0 0 0 0 0 0 0 0 -0 -0 -0 -0 -0 0 1 0 0 0 0 1 1 1 1 -1 -1 -0 0 0 0 0 0 0 0 0 -0 0 -0 -0 -0
-2 -2 -2 -1 -1 -1 -1 -1 -2 -2 -2 -2 -2 -1 -1 -1 -1 -1 -1 -1 -1 -1 -1 -1 -0 -0 -0 -0 -0 -0 -1 -1 -2 -2 -2 -2 -2 -2 -2 -2 -2 -1 -0 -0 -0 0 0 0 0 0 0 0 0 0 0 0 0 0 0 0 0 0 0 0 0 0 0 -0 -0 -0 0 0 0 0 -0 -0 -0 -0 0 0 -0 -0 -0 0 1 1 0 0 0 0 -0 -0 -0 -0 -0 -1 -1 -0 -0 1 0 -1 -1
-2 -2 -2 -2 -2 -2 -2 -2 -2 -2 -2 -2 -2 -2 -2 -2 -2 -2 -2 -1 -1 -1 -1 -0 -0 -0 -0 -0 -1 -1 -1 -1 -2 -2 -2 -2 -2 -3 -3 -3 -3 -3 -2 -1 -1 -0 -0 -0 -0 -0 -0 -0 -0 0 0 0 0 0 1 1 1 1 1 1 0 0 0 -0 -0 -0 0 0 0 0 0 -0 -0 -0 0 1 0 -0 -0 -0 0 0 0 -0 -0 -0 -0 0 0 0 -0 -0 -0 -0 -1 -1 -1 -0 0
-2 -2 -2 -2 -2 -2 -2 -2 -2 -2 -2 -2 -2 -2 -2 -2 -2 -2 -2 -1 -1 -1 -1 -1 -1 -1 -1 -1 -1 -1 -2 -2 -2 -2 -2 -2 -2 -2 -3 -3 -3 -3 -2 -2 -1 -1 -1 -0 -0 -0 -0 -0 -0 -0 0 0 0 0 1 1 1 1 1 0 0 0 -0 -0 -0 0 1 1 0 0 0 -0 -0 0 1 1 1 0 -0 -0 -0 -0 -0 -0 -0 -0 0 1 1 1 1 0 0 -0 -1 -0 -0 -0 -0
-1 -2 -2 -2 -2 -2 -2 -2 -2 -2 -2 -2 -2 -2 -2 -2 -2 -2 -2 -2 -2 -1 -1 -1 -1 -1 -1 -1 -2 -2 -2 -2 -2 -2 -2 -1 -1 -1 -1 -2 -2 -2 -2 -1 -1 -1 -0 -0 -0 -0 -0 -0 -0 -0 0 0 0 0 1 1 1 1 0 0 0 -0 -0 -0 -0 0 1 1 1 -0 -0 -0 -0 0 1 1 1 0 0 -0 -0 -0 -0 -0 -0 -0 -0 1 1 1 1 0 -0 -0 -1 -0 0 1 1
-1 -1 -2 -2 -2 -2 -2 -2 -2 -2 -2 -2 -2 -2 -2 -2 -2 -2 -2 -2 -2 -2 -2 -1 -1 -1 -1 -1 -1 -1 -1 -1 -1 -1 -1 -1 -0 -1 -1 -1 -1 -1 -1 -1 -0 -0 -0 0 0 0 0 0 -0 -0 -0 -0 -0 -0 0 0 0 0 0 -0 -0 -0 -0 -0 -0 0 1 1 1 0 0 -0 -0 -0 0 0 0 0 0 0 0 -0 -0 -0 -1 -1 0 1 1 0 1 -0 -1 -1 -0 -1 -0 1 1
-1 -1 -1 -1 -1 -1 -2 -1 -1 -1 -1 -1 -1 -2 -2 -2 -2 -2 -2 -2 -2 -2 -2 -2 -1 -1 -1 -1 -1 -1 -1 -1 -1 -1 -1 -0 -0 -0 -0 -0 -0 -0 -0 -0 -0 -0 -0 0 0 -0 -0 -0 -1 -1 -1 -1 -1 -1 -1 -1 -0 -0 -0 -0 -1 -0 -0 -1 -0 -0 0 1 1 1 1 0 0 0 0 0 -0 0 1 0 0 -0 -0 -0 -0 -0 1 1 1 0 0 0 -0 -0 0 -0 -0 0 1
-1 -1 -1 -1 -1 -1 -1 -1 -1 -1 -1 -1 -1 -1 -1 -2 -2 -2 -2 -2 -2 -2 -2 -2 -2 -1 -1 -1 -1 -1 -1 -1 -1 -1 -1 -0 0 0 -0 -0 -0 -1 -1 -1 -1 -1 -1 -1 -1 -1 -1 -1 -1 -1 -1 -1 -2 -2 -2 -1 -1 -1 -1 -1 -1 -1 -1 -1 -1 -0 -0 -0 0 1 1 0 0 0 -0 -0 -0 0 1 0 -0 -0 0 0 -0 0 1 1 1 0 0 1 1 0 0 -0 0 0 0
-0 -0 -1 -1 -1 -1 -1 -1 -1 -1 -1 -1 -1 -1 -1 -1 -1 -1 -1 -2 -2 -2 -2 -2 -2 -2 -2 -2 -1 -1 -1 -1 -1 -1 -0 0 1 1 0 -0 -1 -1 -1 -1 -1 -1 -1 -1 -1 -1 -1 -1 -1 -1 -1 -1 -1 -1 -1 -1 -1 -1 -1 -1 -1 -1 -1 -1 -1 -1 -1 -0 -0 0 1 0 -0 -0 -0 0 0 0 1 0 -0 -0 1 0 -0 0 0 1 1 1 1 1 1 1 0 0 0 0 1
0 0 -0 -0 -1 -1 -1 -1 -0 -1 -1 -1 -1 -1 -0 -1 -1 -1 -1 -1 -1 -2 -2 -2 -2 -2 -2 -2 -2 -2 -2 -1 -1 -1 -0 1 1 1 0 -0 -0 -0 -1 -1 -1 -1 -1 -1 -1 -1 -1 -1 -0 -0 -0 -0 -0 -0 -0 -1 -1 -1 -1 -1 -1 -1 -1 -1 -1 -1 -1 -0 0 1 1 -0 -1 -1 -0 0 0 0 0 0 0 0 0 0 0 0 0 1 1 1 1 1 1 0 0 1 1 1 1
1 1 1 -0 -0 -1 -1 -1 -0 -0 -0 -1 -1 -1 -0 -0 -1 -1 -1 -1 -1 -1 -1 -2 -2 -2 -2 -2 -2 -2 -2 -2 -2 -1 -1 -0 1 1 0 -0 -0 -0 -0 -1 -1 -1 -1 -1 -1 -1 -1 -0 -0 -0 0 0 0 0 0 -0 -0 -0 -0 -0 -1 -1 -2 -1 -1 -1 -1 -0 1 1 1 0 -0 -1 -1 -0 -0 -0 0 1 1 1 1 1 1 1 0 1 1 1 1 1 1 1 1 1 1 0 0
1 1 1 0 -0 -1 -1 -1 -1 -0 -0 -0 -1 -1 -0 -0 -0 -1 -1 -1 -1 -1 -1 -1 -1 -2 -2 -2 -2 -2 -2 -2 -2 -2 -2 -1 -1 -1 -1 -1 -1 -1 -1 -1 -1 -1 -1 -1 -1 -1 -1 -1 -0 -0 -0 -0 -0 -0 -0 -0 -0 -0 -0 -0 -1 -1 -1 -1 -1 -1 -1 -0 0 0 1 1 0 -0 -1 -0 -0 0 0 1 1 1 1 1 1 1 0 1 1 1 1 1 1 1 1 1 0 0 0
2 1 1 1 -0 -1 -1 -1 -1 -1 -1 -1 -1 -0 -0 0 -0 -0 -0 -0 -1 -1 -1 -1 -1 -1 -2 -2 -2 -2 -2 -2 -2 -2 -2 -2 -2 -2 -2 -2 -2 -1 -1 -1 -0 -0 -0 -1 -1 -1 -1 -1 -1 -1 -0 -0 -0 -0 -0 -0 -0 -0 -0 -0 -0 -0 -0 -1 -1 -1 -0 -0 -0 -0 -0 0 0 -0 -0 -0 0 0 1 1 1 1 1 1 1 1 0 0 0 0 0 1 1 1 1 1 0 0 0
1 2 2 1 1 -0 -1 -1 -1 -1 -1 -1 -1 -0 -0 0 0 0 0 -0 -0 -0 -0 -1 -1 -1 -1 -2 -2 -1 -1 -1 -1 -2 -2 -2 -2 -2 -2 -2 -1 -1 -0 0 0 0 -0 -0 -0 -0 -0 -1 -1 -0 -0 -0 -0 -0 -0 -0 -0 -0 -0 -1 -0 -0 -0 -0 -1 -1 -0 -0 -0 -0 -0 -0 -0 -0 -0 -0 0 0 1 1 1 1 1 1 0 0 0 0 0 0 0 0 0 0 0 0 0 0 0
1 1 2 2 2 1 0 -0 -0 -0 -0 -1 -1 -1 -0 -0 0 1 1 0 0 -0 -0 -0 -1 -1 -1 -1 -1 -1 -1 -1 -1 -1 -1 -1 -1 -1 -1 -1 -0 0 1 1 1 1 1 0 -0 -0 -0 -0 -0 -0 -0 0 0 0 -0 -0 -0 -0 -0 -0 -0 -0 -0 0 0 -0 0 0 0 0 0 -0 -0 -0 -0 0 0 0 1 1 1 1 1 0 0 0 0 0 0 0 0 0 0 0 -0 -0 -0 0 0
1 1 2 3 3 2 2 1 0 -0 -0 -0 -0 -0 -0 -0 0 1 1 1 0 -0 -0 -0 -0 -0 -1 -1 -1 -1 -1 -1 -1 -1 -1 0 0 1 1 1 1 2 2 2 2 1 1 0 0 -0 -0 -0 -0 0 0 0 1 1 0 0 -0 -0 0 0 -0 -0 -0 0 0 0 1 1 1 1 0 0 -0 -0 0 0 0 0 1 1 1 2 1 1 0 -0 -0 -0 -0 -0 0 -0 -0 -0 -0 -0 -0 -0 -0
1 1 2 3 3 3 3 1 0 -0 -0 -0 -0 0 -0 -0 -0 0 1 1 0 -0 -0 -0 -0 -0 -0 -1 -1 -1 -1 -1 -1 -1 -0 0 1 2 2 2 2 2 2 2 2 1 1 0 0 -0 -0 -0 -0 0 0 1 1 1 1 0 -0 -0 0 0 0 -0 -0 -0 -0 0 0 1 1 1 0 -0 -0 -0 0 0 0 0 0 1 1 1 2 1 0 -0 -0 -0 -0 -0 -0 -0 -0 -0 -0 -0 -0 -0 -0
1 1 1 2 3 3 3 2 1 -0 -1 -1 -0 0 0 0 0 0 1 1 0 -0 -0 -0 -0 -0 -0 -1 -1 -1 -1 -1 -1 -1 -0 1 1 2 2 2 2 2 2 1 1 1 1 0 -0 -0 -0 -0 -0 -0 0 0 1 1 1 0 0 -0 -0 0 0 0 0 -0 -0 -0 0 0 0 0 -0 -0 -0 -0 0 0 0 0 0 0 1 1 1 1 1 0 -0 -1 -1 -1 -0 -0 -0 -0 -0 -0 -0 -0 -0
0 1 1 2 2 3 3 2 1 -0 -1 -1 -1 -0 -0 -0 -0 0 0 0 0 0 -0 0 0 0 -0 -1 -1 -1 -2 -1 -1 -1 -1 0 1 1 1 1 1 1 1 1 0 0 0 -0 -0 -0 -1 -1 -0 -0 0 0 0 0 0 0 0 -0 -0 -0 0 1 0 0 0 0 0 0 0 0 -0 -0 -0 -0 -0 0 0 0 0 0 0 0 1 1 1 1 -0 -0 -1 -1 -1 -1 -0 -0 -0 -0 -0 -0 -1
0 1 0 1 2 2 3 2 1 -0 -1 -1 -1 -1 -0 -1 -1 -0 -0 -0 0 0 0 0 1 0 0 -0 -1 -1 -1 -1 -2 -2 -2 -1 -0 0 0 0 0 1 1 0 0 -0 -0 -0 -0 -0 -1 -1 -0 -0 -0 -0 -0 0 0 0 0 0 -0 -0 -0 0 0 1 0 0 0 1 1 0 0 -0 -0 -0 -0 0 0 1 1 0 0 0 0 1 1 1 1 0 -0 -1 -1 -1 -0 -0 -0 -0 -0 -0 -0
0 1 0 1 1 2 2 2 1 -0 -1 -1 -1 -1 -1 -1 -1 -1 -1 -0 -0 -0 -0 0 1 0 0 -0 -1 -1 -1 -1 -2 -2 -2 -2 -1 -1 -0 -0 -0 0 0 0 -0 -0 -0 -0 -0 -0 -1 -1 -0 -0 -0 -0 -0 -0 -0 0 0 0 0 -0 -0 -0 -0 0 0 0 0 0 1 1 0 0 0 -0 -0 0 0 1 1 0 0 -0 -0 0 1 1 1 1 0 -0 -0 -0 -0 -0 -0 -0 -0 -0 -0
0 1 0 1 1 2 2 2 1 -0 -1 -1 -1 -1 -1 -1 -1 -1 -1 -0 -0 -0 -0 0 0 0 0 -0 -1 -1 -1 -1 -1 -1 -2 -2 -2 -1 0 -0 -0 0 0 0 -0 -0 -0 -0 -0 -0 -1 -1 -1 -0 -0 -0 -0 -0 -0 -0 0 0 0 -0 -0 -0 -0 -0 -0 -0 -0 0 0 0 1 1 1 0 0 0 0 1 1 1 0 0 -0 0 0 1 1 1 1 0 0 0 -0 -0 -0 -0 -0 -0 -0
1 1 1 1 1 2 2 2 1 0 -1 -1 -1 -1 -1 -0 -0 -0 -0 -0 -1 -1 -0 -0 -0 0 0 -0 -0 -0 -0 -0 -0 -1 -1 -1 -1 -0 1 1 0 0 0 0 -0 -0 -0 -0 -0 -0 -0 -1 -0 -0 -0 -1 -1 -0 -0 -0 -0 -0 -0 -0 -0 -0 -0 -0 -0 -0 -0 -0 -0 0 0 1 1 1 0 0 0 0 1 1 0 0 0 0 0 0 1 1 1 1 0 0 0 0 0 -0 -0 -0 -0
1 1 1 1 1 2 2 2 2 1 -0 -1 -1 -1 -0 1 1 1 0 -0 -1 -1 -1 -1 -0 -0 0 1 1 1 0 0 0 -0 -1 -0 -0 -0 1 1 1 0 1 0 -0 -0 -0 -0 -0 -0 -0 -0 -0 -0 -0 -1 -1 -1 -1 -0 -0 -0 -0 -0 -0 -0 -0 -0 -0 -0 -0 -0 -0 0 0 0 1 1 1 0 0 0 1 0 0 0 0 0 0 0 0 0 0 0 0 1 1 1 1 0 0 0 0
2 1 1 1 2 2 3 2 2 1 -0 -1 -1 -1 -0 1 1 1 1 -0 -1 -1 -1 -1 -0 0 1 1 1 1 0 0 -0 -0 -0 -0 -0 -0 0 1 0 0 1 0 -0 -0 0 0 0 -0 -0 -0 -0 -1 -1 -1 -1 -1 -1 -1 -1 -1 -1 -1 -1 -0 -0 -0 -0 -0 -0 -0 -0 -0 0 0 0 1 1 1 0 0 0 0 0 0 0 0 0 0 0 0 0 0 0 0 1 1 1 1 1 1 0
2 2 2 2 2 3 3 2 2 1 -0 -1 -1 -0 0 1 2 1 0 -0 -1 -1 -1 -0 0 1 2 2 2 1 -0 -0 -0 -0 -0 -0 -1 -0 0 0 0 0 0 -0 -0 -0 -0 -0 -0 -0 -0 -1 -1 -1 -1 -1 -1 -1 -1 -1 -1 -1 -1 -1 -1 -0 -0 -0 -1 -1 -1 -0 -0 -0 -0 0 0 0 1 1 0 0 0 0 0 0 0 0 0 0 0 0 0 0 0 0 1 1 1 1 1 1 0
1 2 2 3 3 4 3 3 2 1 -0 -0 -0 0 1 1 1 1 -0 -1 -1 -1 -0 1 2 2 3 2 1 0 -0 -0 -0 -0 -0 -0 -1 -1 -0 -0 -0 -0 -0 -0 -1 -1 -0 -0 -0 -0 -0 -1 -1 -1 -1 -1 -1 -1 -1 -1 -1 -1 -1 -1 -1 -0 -0 -1 -1 -1 -1 -1 -1 -0 -0 -0 -0 0 0 0 0 0 0 1 1 1 1 1 0 0 0 -0 -0 -0 0 0 0 1 1 1 1 1 0
1 1 2 3 4 4 3 3 2 1 0 0 1 1 1 1 1 0 -0 -1 -1 -0 1 2 2 3 3 2 1 0 -0 -0 -0 -0 -1 -1 -1 -1 -0 -0 -0 -0 -0 -1 -1 -1 -1 -0 -0 -0 -0 -1 -1 -1 -1 -1 -1 -1 -1 -1 -1 -1 -1 -1 -1 -0 -0 -1 -1 -1 -1 -1 -1 -1 -0 -0 -0 -0 -0 -0 0 0 0 0 0 1 1 1 0 0 0 -0 -0 -0 -0 0 0 1 1 1 1 0 0
0 1 2 3 3 3 2 2 2 2 1 1 2 2 2 2 1 0 -0 -0 -0 0 1 2 3 3 2 1 1 0 0 0 -0 -0 -1 -1 -1 -1 -0 -0 -1 -1 -1 -1 -1 -1 -1 -1 -0 -0 -0 -1 -1 -1 -2 -1 -1 -1 -1 -1 -1 -1 -1 -1 -1 -1 -1 -1 -1 -1 -1 -1 -1 -1 -0 -0 -0 -0 -0 -0 -0 -0 -0 -0 0 0 0 1 0 0 0 -0 -0 -1 -0 -0 0 1 1 1 1 0 -0
0 1 2 2 2 2 1 0 1 2 3 3 2 2 2 2 1 0 0 0 0 1 1 2 2 2 1 0 0 0 0 0 -0 -0 -1 -1 -1 -1 -1 -1 -1 -1 -1 -1 -1 -1 -1 -1 -0 -0 -0 -0 -1 -1 -1 -1 -1 -1 -1 -1 -1 -1 -1 -1 -1 -1 -1 -1 -1 -1 -1 -1 -0 -0 -0 -0 -0 -0 -1 -1 -1 -1 -0 -0 -0 -0 0 0 0 0 0 -0 -1 -1 -1 -0 -0 0 1 1 0 -0 -0
1 2 2 2 2 1 0 -0 1 2 3 3 3 3 2 2 1 1 1 1 1 1 2 2 2 1 1 0 0 0 -0 -0 -0 -1 -1 -1 -1 -1 -1 -1 -1 -1 -1 -1 -1 -1 -0 -0 -0 -0 -0 -0 -0 -1 -1 -1 -1 -2 -2 -2 -1 -1 -1 -1 -0 -0 -0 -0 -0 -0 -0 -0 -0 -0 -0 -0 -0 -0 -0 -1 -1 -1 -1 -0 -0 -0 -0 -0 -0 -0 -0 -0 -1 -1 -1 -1 -0 -0 0 -0 -0 -0 -1
2 2 2 2 1 1 1 0 0 1 2 2 2 2 2 2 1 1 1 1 1 1 2 2 1 1 1 0 0 -0 -0 -0 -1 -1 -1 -1 -1 -1 -1 -0 -0 -0 -1 -1 -1 -0 -0 -0 -0 0 0 -0 -0 -0 -0 -1 -1 -1 -1 -1 -1 -1 -1 -1 -0 -0 -0 -0 -0 -0 -0 -0 -0 -0 -1 -1 -1 -1 -1 -1 -1 -1 -1 -0 -0 -0 -0 -0 -0 -0 -0 -0 -1 -1 -1 -1 -0 -0 -0 -0 -0 -1 -1
3 3 2 2 2 1 1 0 0 1 1 1 1 1 2 2 1 1 2 1 1 1 1 1 0 0 0 0 0 -0 -0 -1 -1 -1 -1 -1 -1 -1 -1 -0 -0 -0 -0 -1 -1 -0 -0 -0 0 0 0 -0 -0 -0 -0 -0 -0 -1 -1 -1 -1 -1 -1 -1 -1 -0 -0 -0 -1 -1 -1 -1 -1 -1 -1 -1 -1 -1 -1 -1 -1 -1 -1 -1 -0 -0 -0 -0 -0 -0 -0 -0 -1 -1 -1 -1 -0 -0 0 -0 -0 -0 -1
4 4 3 3 2 1 1 0 0 0 0 0 1 1 1 2 2 1 1 1 1 1 1 1 -0 -0 -0 -0 -0 -1 -1 -1 -1 -1 -1 -1 -1 -1 -1 -0 0 0 0 -0 -0 -0 -0 0 0 0 0 0 -0 -0 -0 -0 -0 -0 -0 -1 -1 -1 -1 -1 -1 -1 -1 -1 -1 -1 -1 -0 -0 -0 -0 -0 -0 -0 -0 -0 -1 -1 -1 -1 -1 -0 -0 -0 -0 -0 -0 -1 -1 -1 -1 -1 -1 -0 1 0 0 0 0
4 4 4 3 2 1 0 0 0 0 -0 -0 0 1 1 2 1 1 1 0 0 0 0 0 -0 -0 -1 -1 -1 -1 -2 -1 -1 -1 -1 -1 -1 -1 -0 -0 0 0 1 0 0 -0 -0 0 0 0 0 0 -0 -0 -0 -0 -0 -0 -0 -0 -1 -1 -1 -1 -1 -1 -0 -0 -0 -0 0 0 1 1 1 1 1 1 1 1 0 0 -0 -0 -0 -0 -0 -0 -0 -0 -0 -1 -1 -1 -1 -1 -1 -0 0 0 0 0 1
3 3 3 2 1 0 0 -0 -0 -0 0 0 1 1 1 1 1 1 1 0 0 -0 -0 -0 -0 -0 -1 -1 -1 -1 -1 -1 -1 -1 -1 -1 -1 -0 -0 -0 0 0 1 1 0 0 0 1 1 1 1 0 0 -0 -0 -0 -0 -0 -0 -0 -0 -0 -1 -1 -0 -0 -0 -0 0 0 1 1 1 1 1 1 1 2 2 2 1 1 1 1 1 0 0 0 0 0 -0 -0 -1 -1 -2 -2 -1 -1 -0 -0 -0 0 1
3 3 2 1 0 -0 -0 -0 -0 -0 0 1 1 2 2 1 1 0 0 0 -0 -0 -0 -0 -0 -0 -1 -1 -1 -1 -1 -1 -1 -1 -1 -1 -1 -1 -0 0 0 0 0 1 1 1 1 1 1 1 1 1 0 -0 -0 -0 -0 -0 -0 -0 -0 -0 -0 -0 -0 -0 -0 -0 -0 -0 -0 0 0 0 -0 -0 -0 0 0 0 1 1 1 1 1 1 1 1 1 1 1 0 -0 -1 -1 -2 -1 -1 -1 -1 -1 -1 0
2 2 1 0 -0 -1 -1 -1 -0 -0 0 1 1 2 1 1 0 0 0 0 0 -0 -1 -0 0 0 -0 -1 -1 -1 -1 -1 -1 -1 -1 -1 -1 -1 -0 0 0 0 0 1 1 1 1 1 1 1 1 1 0 -0 -1 -1 -1 -1 -0 -0 -0 0 0 0 -0 -0 -0 -1 -1 -1 -1 -1 -1 -1 -2 -2 -2 -2 -2 -1 -1 -0 -0 -0 -0 0 0 0 1 1 1 1 0 -0 -1 -1 -1 -1 -1 -2 -2 -1 -1
2 2 1 -0 -0 -1 -1 -1 -1 -0 -0 1 1 1 1 0 0 -0 -0 -0 -0 -0 -0 -0 -0 0 -0 -1 -1 -1 -1 -0 -0 -1 -1 -1 -1 -0 0 0 0 0 0 0 1 1 2 1 1 1 1 1 0 -0 -0 -0 -1 -1 -0 -0 -0 0 0 0 0 -0 -0 -1 -1 -1 -2 -2 -2 -2 -2 -2 -2 -3 -2 -2 -2 -1 -1 -1 -0 -0 -0 0 0 1 1 1 1 1 0 -0 -0 -1 -1 -1 -2 -2 -1
2 1 0 -0 -1 -1 -2 -2 -1 -1 -0 0 1 1 0 -0 -0 -0 -1 -0 -0 -0 -0 -1 -1 -0 -0 -0 -0 -0 -0 -0 -0 -0 -1 -1 -1 -0 0 0 0 0 0 0 0 1 1 1 1 1 0 0 0 0 -0 -0 -0 -0 -0 -0 -0 -0 -0 -0 -0 -0 -0 -1 -1 -1 -1 -1 -2 -2 -2 -2 -2 -2 -2 -2 -2 -2 -1 -1 -1 -1 -0 -0 0 0 1 1 1 1 1 0 0 -0 -0 -1 -1 -1 -1
2 1 0 -0 -1 -2 -2 -2 -2 -1 -0 -0 -0 -0 -0 -1 -1 -1 -1 -1 -0 -0 -0 -0 -1 -1 -1 -0 -0 0 -0 -0 -0 -0 -1 -1 -0 -0 0 0 1 1 0 0 1 1 1 1 1 0 -0 -0 -0 -0 -0 -0 -0 -0 -0 -0 -0 -1 -1 -1 -1 -0 -0 -1 -1 -1 -1 -1 -1 -1 -1 -1 -1 -1 -1 -1 -2 -2 -2 -1 -1 -1 -1 -1 -1 -0 -0 0 0 0 0 0 0 0 0 -0 -1 -1 -1
1 1 0 -0 -1 -2 -3 -2 -1 -1 -0 -0 -1 -1 -1 -1 -2 -2 -1 -0 -0 -0 -0 -0 -1 -1 -1 -1 -0 0 0 0 -0 -0 -1 -1 -1 -0 0 0 0 0 1 1 1 1 1 1 1 0 -0 -0 -0 -1 -1 -1 -1 -1 -1 -1 -1 -1 -1 -1 -1 -1 -0 -0 -0 -0 -0 0 -0 -0 -0 -0 -0 -1 -1 -1 -1 -2 -2 -2 -2 -2 -1 -1 -1 -1 -1 -0 -0 -0 -0 -0 -0 -0 -0 -0 -1 -1 -1
1 0 -0 -1 -2 -2 -2 -2 -1 -1 -1 -1 -1 -1 -1 -2 -2 -2 -1 -0 -0 -0 -0 -0 -0 -1 -1 -1 -0 0 0 -0 -0 -0 -0 -1 -1 -1 -0 0 0 -0 0 1 1 1 1 1 1 0 -0 -0 -0 -1 -1 -1 -1 -1 -1 -1 -1 -2 -2 -1 -1 -1 -0 -0 0 1 1 1 0 -0 -0 -0 -1 -1 -1 -1 -1 -1 -2 -2 -2 -1 -1 -1 -2 -2 -2 -1 -1 -1 -1 -1 -1 -1 -1 -1 -1 -1 -1
0 -0 -1 -1 -2 -2 -2 -1 -1 -1 -1 -1 -1 -1 -2 -2 -2 -2 -1 -1 -0 -0 -0 -1 -0 -0 -1 -2 -1 -0 0 -0 -0 -0 -1 -1 -1 -1 -1 -1 -0 0 0 0 1 1 1 1 1 1 0 0 0 -0 -0 -0 -1 -1 -1 -1 -1 -1 -1 -1 -1 -0 -0 -0 0 0 0 0 -0 -0 -0 -1 -1 -1 -1 -1 -1 -1 -1 -1 -1 -1 -1 -1 -2 -2 -2 -2 -2 -2 -2 -2 -2 -2 -1 -1 -1 -1 -1
0 -0 -1 -1 -1 -1 -1 -1 -1 -1 -1 -1 -1 -1 -1 -1 -1 -1 -1 -0 -0 0 0 -1 -1 -1 -0 -1 -1 -1 -0 -1 -1 -1 -2 -2 -1 -1 -1 -2 -1 -0 0 0 1 1 2 2 1 1 1 1 1 1 1 0 0 -0 -0 -1 -1 -1 -1 -1 -0 -0 -0 -0 -0 -0 -0 -0 -0 -1 -1 -1 -1 -1 -1 -0 -0 0 0 0 0 -0 -0 -1 -2 -2 -3 -3 -3 -2 -2 -2 -2 -2 -2 -1 -1 -1 -1
0 0 0 -0 -1 -1 -0 -0 -1 -1 -2 -2 -2 -2 -1 -1 -1 -1 -1 -0 0 0 1 0 -1 -1 -1 -0 -1 -1 -1 -1 -1 -1 -1 -2 -2 -1 -0 -1 -1 -1 -1 -0 -0 0 3 2 1 1 1 1 1 1 1 1 1 0 0 -0 -0 -0 -0 -0 -0 -0 -1 -1 -1 -1 -1 -1 -1 -1 -1 -1 -1 -1 -1 -0 0 1 1 2 1 1 0 -0 -1 -1 -2 -2 -3 -3 -2 -2 -1 -1 -2 -2 -2 -2 -2
1 1 1 0 -0 -0 -0 -0 -1 -2 -2 -2 -2 -2 -1 -1 -1 -1 -1 -0 0 1 1 1 0 -1 -1 -0 -0 -1 -1 -2 -2 -1 2 -1 -2 -2 -1 0 -1 -2 -1 -1 -1 -1 2 3 2 1 2 2 2 1 1 1 1 0 0 0 -0 -0 -0 -0 -0 -0 -1 -1 -1 -1 -1 -1 -1 -1 -1 -1 -1 -1 -1 -0 0 1 2 2 1 1 1 0 0 0 -0 -1 -1 -2 -2 -2 -1 -1 -1 -2 -2 -2 -2
1 1 2 1 0 0 0 -0 -1 -1 -1 -1 -1 -1 -1 -0 -0 -0 -0 -0 0 1 2 1 1 0 -1 -1 -0 -0 -1 -2 -2 -0 2 -0 -1 -2 -2 -0 -0 -0 -1 -1 -2 -2 -1 1 2 2 0 3 3 2 1 1 1 0 0 0 -0 -0 -0 -0 -0 -0 -1 -1 -1 -1 -2 -2 -2 -2 -1 -2 -2 -2 -1 -1 0 1 2 1 1 1 1 1 1 1 1 1 0 -0 -1 -1 -1 -1 -1 -2 -2 -2 -2
2 2 2 1 1 0 1 0 -1 -1 -1 -1 -0 -0 -0 0 0 0 0 -0 -0 0 2 2 2 1 1 -0 -1 -0 -0 -1 -1 0 2 -0 -1 -1 -1 -1 -0 0 -0 -1 -1 -2 -3 -2 0 1 -0 2 2 1 0 1 1 0 -0 -0 -0 -0 -0 -0 -1 -1 -1 -1 -1 -1 -1 -2 -2 -3 -3 -3 -3 -3 -2 -1 -0 0 0 -0 -0 -0 0 1 1 1 2 2 1 1 1 0 -0 -0 -0 -1 -2 -2 -2
3 3 2 1 1 1 1 1 -0 -1 -1 -0 -0 0 1 1 1 1 -0 -0 -0 0 1 1 1 1 1 0 -1 -1 -1 -1 0 1 1 -1 -2 -1 -0 -0 -0 0 -0 -0 -1 -1 -2 -2 -1 -1 -2 1 2 1 -1 0 1 0 -0 -0 -0 -0 -1 -1 -1 -1 -1 -2 -2 -2 -2 -2 -2 -3 -3 -4 -4 -4 -3 -2 -1 -1 -1 -1 -1 -1 -1 -0 0 1 1 1 1 2 2 2 2 1 1 0 -0 -1 -1
4 3 2 1 2 2 2 1 0 -0 0 0 1 1 2 1 1 0 -0 -0 -0 0 1 1 0 -0 1 1 0 -1 -2 -1 0 2 2 0 -1 -2 -0 0 0 0 1 0 0 0 -1 -0 -0 -1 -5 -1 1 2 -1 -1 -0 0 1 -0 -0 -1 -1 -1 -1 -1 -1 -1 -2 -3 -3 -2 -2 -3 -4 -4 -4 -4 -4 -2 -2 -2 -3 -2 -2 -2 -1 -1 -1 -0 -0 0 0 1 1 2 2 2 2 2 1 1 0
5 4 3 2 2 2 2 2 2 2 2 2 2 2 2 1 1 0 -0 -0 0 0 1 1 0 -0 -0 1 1 -0 -3 -2 -0 1 1 1 0 -1 -1 -0 0 1 1 1 1 1 -0 -0 -0 -1 -3 -2 -2 -0 2 -0 -1 -1 -0 -0 -0 -1 -1 -2 -2 -2 -2 -2 -2 -3 -4 -4 -3 -3 -4 -4 -4 -4 -3 -2 -2 -3 -3 -3 -2 -2 -2 -1 -1 -1 -1 -1 -0 -0 0 1 1 2 2 2 2 2 2
6 5 4 3 2 2 3 3 3 3 3 3 3 2 1 1 2 1 0 -0 -0 0 0 -0 -0 -0 -0 1 1 0 -2 -1 -0 2 2 2 1 0 0 -0 0 1 2 2 2 2 1 0 -1 -2 -0 -1 -3 -3 0 1 0 -1 -1 -1 -1 -1 -1 -2 -2 -3 -3 -2 -2 -2 -3 -5 -4 -3 -3 -4 -4 -3 -2 -2 -2 -3 -3 -3 -2 -2 -2 -2 -2 -1 -1 -1 -1 -1 -0 0 1 1 1 1 1 1 1
7 6 5 3 3 3 4 4 4 4 4 4 3 2 1 2 3 2 1 -0 -0 -0 1 0 -0 0 1 1 1 0 -1 -1 0 2 4 3 1 0 1 1 0 1 2 2 2 2 2 1 0 -0 0 -0 -2 -3 -3 -1 0 1 1 -0 -1 -1 -2 -2 -2 -3 -3 -3 -2 -2 -3 -4 -4 -4 -4 -4 -3 -3 -2 -2 -3 -2 -2 -2 -2 -2 -2 -2 -2 -2 -2 -2 -1 -1 -1 -0 -0 0 1 1 1 1 1
7 7 6 4 4 4 5 5 4 4 4 5 3 1 2 3 2 0 -0 -1 -1 -0 1 2 1 1 1 2 1 0 -1 0 1 2 4 3 1 -0 1 1 1 1 2 2 3 3 3 2 2 2 1 0 -0 -1 -2 -3 -2 -0 0 1 0 -1 -3 -3 -3 -3 -3 -3 -2 -2 -2 -2 -3 -4 -4 -4 -3 -2 -2 -2 -3 -3 -2 -2 -2 -2 -1 -1 -1 -1 -2 -2 -2 -1 -1 -1 -0 0 0 0 0 0 0
Height
3168 3168 3167 3167 3167 3166 3166 3166 3165 3165 3165 3165 3164 3164 3164 3163 3163 3163 3163 3163 3163 3163 3163 3162 3163 3163 3163 3163 3163 3163 3163 3163 3163 3163 3163 3163 3163 3163 3164 3164 3164 3164 3164 3164 3164 3164 3164 3163 3163 3163 3163 3162 3162 3162 3162 3162 3161 3161 3161 3161 3160 3160 3160 3160 3160 3160 3160 3159 3159 3159 3158 3158 3158 3157 3157 3157 3156 3156 3156 3155 3155 3155 3155 3155 3155 3154 3154 3154 3154 3153 3153 3153 3153 3153 3153 3152 3152 3152 3152 3152 3152 3151 3151
3169 3169 3168 3168 3167 3167 3167 3166 3166 3166 3165 3165 3165 3165 3164 3164 3164 3164 3164 3164 3163 3163 3163 3163 3163 3163 3163 3163 3163 3163 3163 3163 3163 3163 3163 3163 3163 3163 3164 3164 3164 3164 3164 3164 3164 3164 3163 3163 3163 3163 3162 3162 3162 3162 3161 3161 3161 3161 3161 3160 3160 3160 3160 3160 3159 3159 3159 3159 3158 3158 3158 3158 3157 3157 3157 3156 3156 3156 3155 3155 3155 3154 3154 3154 3154 3154 3153 3153 3153 3153 3153 3152 3153 3153 3153 3152 3152 3152 3151 3151 3151 3151 3151
3170 3169 3169 3168 3168 3168 3167 3167 3167 3166 3166 3166 3165 3165 3165 3165 3164 3164 3164 3164 3164 3164 3164 3163 3163 3163 3163 3163 3163 3163 3163 3163 3163 3163 3163 3163 3163 3163 3163 3164 3164 3164 3164 3164 3163 3163 3163 3163 3163 3162 3162 3162 3162 3161 3161 3161 3161 3160 3160 3160 3160 3160 3159 3159 3159 3158 3158 3158 3158 3158 3157 3157 3157 3157 3156 3156 3156 3155 3155 3155 3154 3154 3153 3154 3153 3153 3154 3153 3153 3152 3152 3152 3152 3152 3152 3152 3151 3151 3151 3150 3150 3150 3150
3170 3170 3170 3169 3169 3168 3168 3168 3167 3167 3167 3166 3166 3166 3165 3165 3165 3165 3165 3165 3165 3164 3164 3164 3163 3163 3163 3163 3163 3163 3163 3163 3163 3163 3163 3163 3163 3163 3163 3163 3164 3164 3163 3163 3163 3163 3163 3163 3162 3162 3162 3162 3161 3161 3161 3161 3160 3160 3160 3160 3159 3159 3159 3158 3158 3158 3158 3157 3157 3157 3157 3156 3156 3156 3156 3155 3155 3155 3155 3154 3154 3153 3153 3153 3152 3152 3152 3152 3152 3152 3151 3151 3151 3151 3150 3151 3150 3150 3150 3150 3150 3149 3149
3171 3170 3170 3170 3169 3169 3169 3169 3168 3168 3167 3167 3167 3167 3166 3166 3166 3165 3165 3165 3165 3165 3165 3164 3164 3164 3163 3163 3163 3163 3163 3164 3164 3164 3164 3163 3163 3163 3163 3163 3163 3163 3163 3163 3163 3163 3162 3162 3162 3162 3161 3161 3161 3161 3160 3160 3160 3160 3159 3159 3159 3158 3158 3158 3158 3157 3157 3157 3156 3156 3156 3156 3155 3155 3155 3155 3154 3154 3154 3154 3153 3153 3153 3152 3152 3151 3151 3151 3151 3151 3150 3151 3150 3150 3150 3150 3150 3149 3149 3149 3149 3149 3148
3171 3171 3171 3170 3170 3170 3170 3169 3169 3169 3168 3168 3168 3168 3167 3167 3166 3166 3166 3166 3166 3165 3165 3165 3165 3164 3164 3164 3164 3163 3163 3164 3164 3164 3164 3164 3163 3163 3163 3163 3163 3163 3163 3163 3162 3162 3162 3162 3162 3161 3161 3161 3161 3160 3160 3160 3159 3159 3159 3158 3158 3158 3158 3157 3157 3156 3156 3156 3156 3155 3155 3155 3155 3155 3154 3154 3154 3153 3153 3153 3152 3152 3152 3152 3151 3151 3150 3151 3150 3150 3150 3150 3150 3150 3149 3149 3149 3149 3148 3148 3148 3148 3148
3172 3172 3171 3171 3171 3170 3170 3170 3170 3169 3169 3169 3168 3168 3168 3167 3167 3167 3166 3166 3166 3166 3165 3165 3165 3165 3165 3164 3164 3164 3164 3163 3163 3164 3164 3163 3163 3163 3163 3163 3163 3163 3163 3162 3162 3162 3162 3162 3161 3161 3161 3160 3160 3160 3160 3159 3159 3158 3158 3158 3157 3157 3157 3156 3156 3156 3155 3155 3155 3155 3155 3154 3154 3154 3153 3153 3153 3152 3152 3152 3151 3151 3151 3151 3151 3150 3150 3150 3150 3150 3149 3149 3149 3149 3149 3148 3148 3148 3148 3148 3148 3148 3147
3172 3172 3172 3172 3171 3171 3170 3170 3170 3170 3169 3169 3169 3169 3168 3168 3168 3167 3167 3167 3166 3166 3166 3166 3166 3165 3165 3165 3165 3164 3164 3164 3164 3163 3163 3163 3163 3163 3163 3163 3163 3163 3163 3162 3162 3162 3161 3161 3161 3160 3160 3160 3160 3159 3159 3158 3158 3158 3157 3157 3157 3156 3156 3156 3155 3155 3155 3154 3154 3154 3154 3154 3153 3153 3152 3152 3152 3151 3151 3151 3150 3150 3150 3150 3150 3150 3150 3149 3149 3149 3149 3148 3148 3148 3148 3148 3147 3147 3147 3148 3147 3146 3146
3172 3172 3172 3172 3172 3171 3171 3171 3170 3170 3170 3170 3169 3169 3169 3168 3168 3168 3167 3167 3167 3167 3167 3166 3166 3166 3166 3165 3165 3165 3165 3164 3164 3164 3163 3163 3163 3163 3163 3163 3163 3163 3162 3162 3162 3161 3161 3160 3160 3160 3160 3159 3159 3158 3158 3158 3157 3157 3157 3156 3156 3155 3155 3155 3155 3154 3154 3153 3153 3153 3153 3153 3152 3152 3151 3151 3151 3151 3150 3150 3150 3149 3149 3149 3149 3149 3149 3148 3148 3148 3148 3148 3148 3148 3147 3147 3146 3146 3146 3147 3146 3146 3146
3172 3172 3172 3172 3172 3171 3171 3171 3171 3170 3170 3170 3170 3169 3169 3169 3168 3168 3168 3168 3167 3167 3167 3167 3166 3166 3166 3166 3165 3165 3165 3165 3164 3164 3164 3164 3163 3163 3163 3163 3162 3162 3162 3162 3161 3161 3160 3160 3160 3159 3159 3158 3158 3157 3157 3157 3156 3156 3156 3155 3155 3155 3155 3154 3154 3153 3153 3152 3152 3152 3152 3152 3151 3151 3151 3150 3150 3150 3150 3149 3149 3148 3148 3148 3148 3148 3148 3148 3148 3147 3147 3147 3147 3147 3146 3145 3145 3145 3145 3145 3145 3145 3145
3172 3172 3172 3172 3172 3172 3171 3171 3171 3170 3170 3170 3170 3170 3169 3169 3169 3168 3168 3168 3168 3167 3167 3167 3167 3166 3166 3166 3166 3165 3165 3165 3165 3165 3164 3164 3164 3163 3163 3162 3162 3162 3161 3161 3161 3160 3160 3159 3159 3158 3158 3157 3157 3157 3156 3156 3156 3155 3155 3155 3155 3154 3154 3153 3153 3152 3152 3151 3151 3151 3151 3151 3150 3150 3150 3150 3149 3149 3149 3148 3148 3147 3147 3147 3147 3147 3147 3147 3147 3147 3146 3146 3146 3146 3145 3145 3145 3144 3144 3144 3144 3144 3144
3172 3172 3172 3172 3172 3172 3171 3171 3171 3171 3170 3170 3170 3170 3169 3169 3169 3169 3168 3168 3168 3167 3167 3167 3167 3166 3166 3166 3166 3166 3165 3165 3165 3165 3164 3164 3164 3163 3163 3162 3162 3162 3161 3161 3160 3160 3160 3159 3158 3158 3157 3157 3156 3156 3155 3155 3155 3155 3154 3154 3154 3153 3153 3152 3152 3151 3151 3151 3150 3150 3150 3150 3150 3149 3149 3149 3148 3148 3148 3147 3147 3146 3146 3146 3146 3145 3145 3146 3145 3145 3146 3145 3145 3145 3145 3144 3143 3143 3144 3143 3143 3143 3143
3172 3172 3172 3172 3172 3172 3171 3171 3171 3171 3170 3170 3170 3170 3170 3169 3169 3169 3168 3168 3168 3167 3167 3167 3167 3166 3166 3166 3166 3166 3165 3165 3165 3165 3164 3164 3164 3163 3163 3162 3162 3162 3161 3161 3160 3160 3159 3159 3158 3157 3157 3156 3156 3155 3155 3154 3154 3154 3153 3153 3153 3152 3152 3151 3151 3150 3150 3150 3150 3150 3149 3149 3149 3149 3148 3148 3147 3147 3146 3146 3146 3145 3145 3145 3145 3145 3145 3145 3144 3144 3145 3145 3145 3144 3144 3144 3143 3143 3142 3142 3142 3142 3142
3172 3172 3172 3172 3171 3171 3171 3171 3171 3171 3170 3170 3170 3170 3170 3169 3169 3169 3168 3168 3168 3167 3167 3167 3166 3166 3166 3166 3165 3165 3165 3165 3165 3164 3164 3164 3163 3163 3163 3162 3162 3161 3161 3160 3160 3159 3159 3158 3157 3157 3156 3156 3155 3155 3154 3154 3153 3153 3153 3152 3152 3151 3151 3151 3150 3150 3150 3149 3149 3149 3148 3148 3148 3148 3147 3147 3146 3146 3145 3145 3145 3145 3145 3144 3144 3144 3144 3144 3143 3143 3144 3144 3144 3143 3143 3143 3143 3142 3142 3142 3142 3142 3142
3172 3172 3171 3171 3171 3171 3171 3171 3171 3170 3170 3170 3170 3170 3170 3169 3169 3169 3168 3168 3168 3167 3167 3167 3166 3166 3166 3165 3165 3165 3165 3165 3164 3164 3164 3163 3163 3163 3162 3162 3161 3161 3160 3160 3160 3159 3158 3158 3157 3156 3156 3155 3155 3154 3154 3153 3153 3152 3152 3151 3151 3151 3150 3150 3150 3149 3149 3148 3148 3148 3147 3147 3147 3147 3146 3146 3146 3145 3145 3145 3144 3144 3144 3143 3143 3143 3143 3142 3142 3142 3142 3142 3143 3142 3142 3142 3142 3142 3141 3141 3141 3141 3141
3172 3171 3171 3171 3171 3171 3171 3171 3170 3170 3170 3170 3170 3170 3170 3169 3169 3169 3168 3168 3168 3167 3167 3166 3166 3166 3165 3165 3165 3165 3164 3164 3164 3163 3163 3163 3163 3162 3162 3161 3161 3160 3160 3160 3159 3158 3158 3157 3157 3156 3155 3155 3155 3154 3153 3153 3152 3152 3151 3151 3150 3150 3150 3149 3149 3148 3148 3148 3147 3147 3147 3147 3146 3146 3146 3145 3145 3144 3144 3144 3143 3143 3143 3142 3142 3142 3142 3141 3141 3141 3141 3141 3142 3142 3142 3141 3141 3141 3141 3141 3141 3141 3141
3171 3171 3171 3171 3170 3170 3170 3170 3170 3170 3170 3170 3170 3170 3169 3169 3169 3168 3168 3168 3167 3167 3167 3166 3166 3165 3165 3165 3165 3164 3164 3164 3163 3163 3163 3162 3162 3162 3161 3161 3160 3160 3159 3159 3158 3158 3157 3157 3156 3155 3155 3155 3154 3154 3153 3153 3152 3152 3151 3150 3150 3150 3149 3149 3148 3148 3147 3147 3147 3146 3146 3146 3145 3145 3145 3145 3144 3143 3143 3142 3142 3142 3142 3142 3141 3141 3141 3140 3140 3140 3140 3140 3141 3141 3141 3141 3141 3140 3140 3140 3140 3140 3140
3171 3171 3171 3170 3170 3170 3170 3170 3170 3170 3170 3169 3169 3169 3169 3169 3168 3168 3168 3168 3167 3167 3166 3166 3166 3165 3165 3165 3164 3164 3164 3163 3163 3162 3162 3162 3161 3161 3160 3160 3160 3159 3159 3158 3158 3157 3157 3156 3155 3155 3155 3154 3154 3153 3153 3152 3152 3151 3150 3150 3150 3149 3149 3148 3147 3147 3146 3146 3146 3145 3145 3145 3145 3144 3144 3144 3143 3142 3142 3142 3141 3141 3141 3141 3140 3140 3140 3140 3140 3140 3140 3140 3140 3140 3140 3140 3140 3140 3140 3140 3140 3140 3140
3171 3170 3170 3170 3170 3170 3169 3169 3169 3169 3169 3169 3169 3169 3169 3168 3168 3168 3167 3167 3167 3166 3166 3166 3165 3165 3165 3165 3164 3164 3163 3163 3162 3162 3161 3161 3161 3160 3160 3160 3159 3159 3158 3158 3157 3157 3156 3155 3155 3155 3154 3153 3153 3152 3152 3151 3151 3150 3150 3149 3149 3148 3148 3147 3147 3146 3146 3145 3145 3145 3144 3144 3144 3143 3143 3143 3142 3142 3141 3141 3140 3140 3140 3140 3140 3140 3139 3139 3139 3139 3139 3139 3139 3139 3139 3139 3139 3139 3139 3139 3139 3139 3139
3170 3170 3170 3170 3169 3169 3169 3169 3169 3168 3168 3168 3168 3168 3168 3168 3168 3167 3167 3167 3166 3166 3166 3165 3165 3165 3164 3164 3164 3163 3163 3163 3162 3162 3161 3160 3160 3160 3159 3159 3159 3158 3158 3157 3157 3156 3156 3155 3155 3154 3153 3153 3152 3152 3151 3151 3150 3150 3149 3149 3148 3148 3147 3146 3146 3145 3145 3145 3144 3144 3144 3143 3143 3143 3142 3142 3141 3141 3140 3140 3140 3140 3140 3139 3139 3139 3138 3138 3138 3138 3138 3138 3138 3138 3138 3138 3138 3138 3138 3138 3138 3138 3138
3170 3170 3170 3169 3169 3169 3168 3168 3168 3168 3168 3168 3168 3168 3168 3167 3167 3167 3167 3166 3166 3166 3165 3165 3165 3164 3164 3164 3163 3163 3163 3162 3162 3161 3161 3160 3160 3160 3159 3159 3158 3158 3158 3157 3156 3156 3155 3155 3154 3153 3153 3152 3151 3151 3150 3150 3150 3149 3148 3148 3147 3147 3146 3146 3145 3145 3144 3144 3143 3143 3143 3142 3142 3142 3141 3141 3140 3140 3140 3139 3139 3139 3139 3139 3138 3138 3138 3137 3137 3137 3137 3137 3137 3137 3137 3137 3137 3137 3137 3137 3137 3137 3137
3169 3169 3169 3169 3168 3168 3168 3167 3167 3167 3167 3167 3167 3167 3167 3167 3167 3166 3166 3166 3165 3165 3165 3165 3164 3164 3163 3163 3163 3162 3162 3162 3161 3161 3160 3160 3160 3160 3159 3159 3158 3158 3157 3157 3156 3155 3155 3154 3153 3152 3152 3151 3150 3150 3150 3149 3149 3148 3147 3147 3146 3146 3145 3145 3144 3144 3144 3143 3143 3142 3142 3142 3141 3141 3140 3140 3140 3139 3139 3139 3138 3138 3138 3138 3138 3138 3137 3137 3136 3136 3136 3136 3136 3136 3136 3136 3136 3136 3136 3136 3136 3136 3136
3168 3168 3168 3168 3168 3168 3167 3167 3167 3167 3166 3166 3166 3166 3166 3166 3166 3166 3166 3165 3165 3165 3165 3164 3164 3163 3163 3163 3162 3162 3162 3161 3161 3160 3160 3160 3160 3159 3159 3158 3158 3157 3157 3156 3155 3155 3154 3153 3152 3152 3151 3150 3150 3149 3149 3148 3148 3147 3146 3146 3145 3145 3144 3144 3143 3143 3142 3142 3142 3141 3141 3141 3140 3140 3139 3139 3139 3138 3138 3138 3138 3137 3137 3137 3137 3137 3137 3136 3136 3136 3135 3135 3135 3135 3136 3136 3136 3136 3136 3136 3135 3135 3135
3168 3167 3167 3167 3167 3167 3167 3166 3166 3166 3166 3165 3165 3165 3165 3165 3165 3165 3165 3165 3165 3164 3164 3164 3163 3163 3162 3162 3161 3161 3161 3160 3160 3160 3160 3160 3159 3159 3158 3158 3157 3157 3156 3155 3155 3154 3153 3152 3152 3151 3150 3150 3149 3148 3148 3147 3147 3146 3145 3145 3144 3144 3143 3143 3142 3142 3141 3141 3141 3140 3140 3140 3139 3139 3139 3138 3138 3137 3137 3137 3137 3137 3136 3136 3136 3136 3136 3136 3136 3135 3135 3135 3135 3135 3135 3135 3135 3135 3135 3135 3135 3135 3135
3166 3167 3167 3166 3166 3166 3166 3166 3165 3165 3165 3165 3165 3165 3165 3165 3165 3165 3165 3164 3164 3164 3163 3163 3163 3162 3162 3161 3161 3160 3160 3160 3160 3159 3159 3159 3158 3158 3157 3157 3156 3156 3155 3155 3154 3153 3152 3151 3151 3150 3149 3149 3148 3148 3147 3146 3146 3145 3145 3144 3143 3143 3142 3142 3141 3141 3141 3140 3140 3140 3139 3139 3138 3138 3138 3137 3137 3137 3136 3136 3136 3136 3136 3136 3136 3136 3135 3135 3135 3135 3135 3134 3134 3134 3134 3134 3134 3134 3134 3134 3134 3134 3134
3165 3165 3165 3166 3165 3165 3165 3165 3165 3164 3164 3164 3164 3164 3164 3164 3164 3164 3164 3163 3163 3163 3163 3162 3162 3161 3161 3160 3160 3160 3159 3159 3159 3158 3158 3158 3157 3157 3156 3156 3155 3155 3154 3153 3153 3152 3151 3151 3150 3149 3149 3148 3147 3147 3146 3145 3145 3144 3144 3143 3142 3142 3141 3141 3140 3140 3140 3140 3139 3139 3138 3138 3138 3137 3137 3136 3136 3136 3136 3136 3135 3135 3135 3135 3135 3135 3135 3135 3135 3135 3134 3134 3134 3134 3133 3133 3133 3133 3133 3133 3133 3133 3133
3165 3165 3165 3165 3165 3165 3164 3164 3164 3163 3163 3163 3163 3163 3163 3163 3163 3163 3163 3162 3162 3162 3162 3161 3161 3160 3160 3159 3159 3158 3158 3158 3157 3157 3157 3156 3156 3156 3155 3155 3154 3154 3153 3152 3152 3151 3150 3150 3149 3148 3148 3147 3146 3146 3145 3145 3144 3144 3143 3142 3142 3141 3140 3140 3140 3139 3139 3139 3138 3138 3138 3137 3137 3137 3136 3136 3136 3135 3135 3135 3135 3135 3135 3135 3134 3134 3134 3134 3134 3134 3134 3133 3133 3133 3133 3133 3132 3132 3132 3132 3132 3132 3132
3163 3164 3164 3164 3164 3164 3163 3163 3163 3162 3162 3162 3162 3162 3162 3162 3162 3162 3162 3161 3161 3161 3161 3160 3160 3160 3159 3158 3158 3157 3157 3156 3156 3156 3155 3155 3155 3154 3154 3154 3153 3153 3152 3151 3151 3150 3150 3149 3148 3147 3147 3146 3145 3145 3145 3144 3143 3143 3142 3141 3141 3140 3140 3139 3139 3138 3138 3138 3137 3137 3137 3136 3136 3136 3136 3135 3135 3135 3135 3135 3134 3134 3134 3134 3134 3133 3133 3133 3133 3133 3133 3133 3132 3132 3132 3132 3132 3131 3131 3131 3131 3131 3131
3162 3162 3162 3163 3163 3163 3162 3162 3162 3161 3161 3161 3161 3161 3161 3161 3161 3161 3160 3160 3160 3160 3160 3160 3159 3159 3158 3157 3157 3156 3156 3155 3155 3155 3154 3154 3153 3153 3153 3152 3152 3152 3151 3150 3150 3149 3149 3148 3147 3147 3146 3145 3145 3144 3144 3143 3142 3142 3141 3141 3140 3140 3139 3139 3138 3138 3137 3137 3137 3136 3136 3136 3135 3135 3135 3135 3135 3135 3134 3134 3134 3133 3133 3133 3133 3133 3132 3132 3132 3132 3132 3132 3131 3131 3131 3131 3131 3130 3130 3130 3130 3130 3130
3161 3161 3161 3162 3162 3162 3161 3161 3161 3160 3160 3160 3160 3160 3160 3160 3160 3160 3160 3160 3159 3159 3159 3159 3158 3158 3157 3156 3156 3155 3155 3155 3154 3154 3153 3153 3152 3152 3151 3151 3151 3150 3150 3150 3149 3148 3148 3147 3146 3146 3145 3144 3144 3143 3143 3142 3141 3141 3140 3140 3139 3139 3138 3138 3137 3137 3137 3136 3136 3136 3135 3135 3135 3135 3135 3134 3134 3134 3134 3133 3133 3133 3133 3132 3132 3132 3132 3131 3131 3131 3131 3131 3130 3130 3130 3130 3130 3130 3129 3129 3129 3129 3129
3160 3160 3160 3160 3161 3161 3160 3160 3160 3160 3160 3160 3159 3159 3159 3159 3159 3159 3159 3158 3158 3158 3158 3157 3157 3157 3156 3155 3155 3155 3154 3154 3153 3153 3152 3151 3151 3151 3150 3150 3150 3150 3149 3149 3148 3147 3147 3146 3145 3145 3144 3143 3143 3142 3142 3141 3141 3140 3140 3139 3139 3138 3138 3137 3137 3136 3136 3135 3135 3135 3135 3135 3134 3134 3134 3134 3134 3133 3133 3133 3132 3132 3132 3131 3131 3131 3131 3130 3130 3130 3130 3130 3130 3129 3129 3129 3129 3128 3128 3128 3128 3128 3128
3159 3159 3160 3160 3160 3160 3160 3159 3159 3159 3159 3159 3158 3158 3158 3158 3158 3158 3158 3157 3157 3157 3157 3156 3156 3156 3155 3155 3155 3154 3153 3153 3152 3151 3151 3150 3150 3150 3149 3149 3149 3149 3148 3148 3147 3146 3146 3145 3145 3144 3143 3143 3142 3141 3141 3140 3140 3140 3139 3138 3138 3137 3137 3136 3136 3136 3135 3135 3135 3134 3134 3134 3134 3133 3133 3133 3133 3133 3132 3132 3132 3131 3131 3131 3130 3130 3130 3130 3130 3129 3129 3129 3128 3128 3128 3128 3127 3127 3127 3127 3127 3126 3126
3158 3158 3159 3159 3159 3159 3159 3158 3158 3158 3158 3158 3158 3158 3158 3157 3157 3157 3157 3156 3156 3156 3156 3155 3155 3155 3155 3154 3154 3153 3152 3151 3151 3150 3150 3150 3149 3149 3148 3148 3148 3147 3147 3147 3146 3145 3145 3145 3144 3143 3143 3142 3141 3140 3140 3140 3139 3139 3138 3138 3137 3137 3136 3136 3135 3135 3135 3134 3134 3134 3133 3133 3133 3133 3132 3132 3132 3132 3131 3131 3131 3130 3130 3130 3130 3129 3129 3129 3128 3128 3128 3128 3127 3127 3127 3127 3126 3126 3126 3125 3125 3125 3125
3157 3157 3157 3158 3158 3158 3158 3158 3157 3157 3157 3157 3157 3157 3157 3156 3156 3156 3156 3155 3155 3155 3155 3155 3154 3154 3153 3153 3152 3152 3151 3150 3150 3149 3149 3148 3148 3147 3147 3147 3146 3146 3146 3145 3145 3145 3144 3144 3143 3143 3142 3141 3140 3140 3139 3139 3138 3138 3137 3137 3136 3136 3135 3135 3135 3134 3134 3134 3133 3133 3132 3132 3132 3132 3131 3131 3131 3131 3130 3130 3130 3130 3129 3129 3129 3128 3128 3128 3127 3127 3127 3126 3126 3126 3126 3125 3125 3125 3125 3124 3124 3124 3123
3155 3156 3156 3156 3156 3156 3156 3156 3156 3156 3156 3156 3156 3156 3156 3155 3155 3155 3155 3154 3154 3154 3154 3153 3153 3153 3152 3152 3151 3150 3150 3149 3148 3148 3148 3147 3147 3146 3146 3146 3145 3145 3145 3145 3144 3144 3143 3143 3142 3142 3141 3140 3140 3139 3138 3138 3137 3137 3136 3136 3135 3135 3135 3134 3134 3134 3133 3133 3132 3132 3132 3131 3131 3131 3130 3130 3130 3130 3130 3129 3129 3129 3128 3128 3128 3127 3127 3126 3126 3126 3125 3125 3125 3125 3125 3124 3124 3124 3124 3123 3123 3122 3122
3154 3155 3155 3155 3155 3155 3155 3155 3155 3155 3155 3155 3155 3155 3155 3155 3154 3154 3154 3153 3153 3153 3153 3152 3152 3151 3151 3150 3150 3149 3149 3148 3147 3147 3146 3146 3146 3145 3145 3145 3144 3144 3144 3144 3143 3143 3143 3142 3142 3141 3140 3140 3139 3138 3138 3137 3137 3136 3136 3135 3135 3134 3134 3133 3133 3133 3132 3132 3131 3131 3131 3130 3130 3130 3130 3130 3129 3129 3129 3128 3128 3127 3127 3127 3126 3126 3125 3125 3125 3125 3124 3124 3124 3123 3123 3123 3123 3122 3122 3122 3121 3120 3120
3153 3153 3154 3154 3154 3154 3154 3154 3154 3155 3155 3155 3155 3154 3154 3154 3153 3153 3152 3152 3152 3152 3151 3151 3151 3150 3150 3149 3149 3148 3147 3147 3146 3146 3145 3145 3145 3144 3144 3144 3143 3143 3143 3142 3142 3142 3142 3141 3141 3140 3140 3139 3138 3138 3137 3136 3136 3135 3135 3135 3134 3134 3133 3133 3132 3132 3131 3131 3131 3130 3130 3130 3129 3129 3129 3129 3128 3128 3127 3127 3127 3126 3126 3125 3125 3125 3124 3124 3124 3123 3123 3122 3122 3122 3121 3121 3121 3121 3120 3120 3120 3119 3119
3152 3152 3152 3153 3153 3153 3153 3153 3153 3153 3154 3154 3153 3153 3153 3152 3152 3151 3151 3151 3151 3150 3150 3150 3149 3149 3148 3148 3147 3147 3146 3146 3145 3145 3144 3144 3143 3143 3143 3142 3142 3142 3141 3141 3141 3141 3140 3140 3140 3140 3139 3138 3138 3137 3136 3136 3135 3135 3134 3134 3134 3133 3133 3132 3132 3131 3131 3130 3130 3130 3129 3129 3128 3128 3128 3127 3127 3127 3126 3126 3125 3125 3125 3124 3124 3123 3123 3123 3122 3122 3121 3121 3120 3120 3120 3119 3119 3119 3119 3118 3118 3117 3117
3151 3151 3151 3152 3152 3152 3152 3152 3152 3152 3152 3152 3152 3152 3151 3151 3150 3150 3150 3150 3149 3149 3149 3148 3148 3147 3147 3146 3146 3145 3145 3144 3144 3143 3143 3143 3142 3142 3142 3141 3141 3141 3140 3140 3140 3140 3140 3139 3139 3139 3138 3138 3137 3136 3136 3135 3135 3134 3134 3133 3133 3132 3132 3131 3131 3130 3130 3130 3129 3128 3128 3128 3127 3127 3127 3126 3126 3125 3125 3125 3124 3124 3123 3123 3122 3122 3122 3121 3121 3120 3120 3119 3119 3118 3118 3117 3117 3117 3117 3116 3116 3115 3115
3150 3150 3150 3151 3151 3151 3151 3151 3151 3151 3151 3151 3150 3150 3150 3150 3149 3149 3149 3148 3148 3147 3147 3147 3146 3146 3145 3145 3144 3144 3143 3143 3142 3142 3142 3141 3141 3141 3140 3140 3140 3140 3139 3139 3139 3139 3139 3138 3138 3138 3137 3137 3136 3136 3135 3135 3134 3134 3133 3133 3132 3132 3131 3131 3130 3130 3129 3129 3128 3128 3127 3127 3126 3126 3125 3125 3125 3124 3124 3123 3123 3122 3122 3121 3121 3121 3120 3120 3119 3119 3118 3118 3117 3116 3116 3115 3115 3115 3115 3114 3114 3113 3113
3149 3150 3150 3150 3150 3150 3150 3150 3150 3150 3150 3149 3149 3149 3148 3148 3148 3148 3147 3147 3146 3146 3145 3145 3145 3144 3144 3143 3143 3142 3142 3141 3141 3141 3140 3140 3140 3140 3139 3139 3139 3139 3138 3138 3138 3138 3137 3137 3137 3137 3136 3136 3135 3135 3135 3134 3134 3133 3133 3132 3132 3131 3130 3130 3130 3129 3129 3128 3127 3127 3126 3126 3125 3125 3125 3124 3124 3123 3123 3122 3122 3121 3120 3120 3120 3119 3119 3118 3118 3117 3116 3116 3115 3115 3114 3114 3113 3113 3113 3112 3112 3111 3111
3148 3149 3149 3149 3149 3149 3149 3149 3148 3148 3148 3148 3147 3147 3147 3147 3146 3146 3146 3145 3145 3145 3144 3144 3143 3143 3142 3142 3141 3141 3140 3140 3140 3140 3139 3139 3139 3138 3138 3138 3138 3137 3137 3137 3137 3136 3136 3136 3136 3136 3135 3135 3135 3134 3134 3133 3133 3132 3132 3131 3131 3130 3130 3130 3129 3128 3128 3127 3127 3126 3126 3125 3125 3124 3124 3123 3122 3122 3121 3121 3120 3120 3119 3119 3118 3118 3117 3117 3116 3115 3115 3114 3113 3113 3112 3111 3111 3110 3110 3110 3109 3109 3109
3147 3147 3147 3147 3147 3147 3147 3147 3147 3147 3146 3146 3146 3146 3145 3145 3145 3145 3144 3144 3144 3143 3143 3142 3142 3141 3141 3140 3140 3140 3139 3139 3138 3138 3138 3138 3137 3137 3137 3137 3136 3136 3136 3136 3136 3135 3135 3135 3135 3135 3135 3134 3134 3133 3133 3132 3132 3132 3131 3131 3130 3130 3129 3129 3128 3128 3127 3126 3126 3125 3125 3124 3124 3123 3122 3121 3121 3120 3120 3119 3119 3118 3118 3117 3117 3116 3116 3115 3115 3114 3113 3112 3112 3111 3110 3110 3109 3108 3108 3107 3107 3106 3106
3146 3146 3146 3146 3145 3145 3145 3145 3145 3145 3145 3145 3145 3145 3144 3144 3144 3143 3143 3142 3142 3142 3141 3141 3140 3140 3140 3139 3139 3138 3138 3137 3137 3137 3137 3136 3136 3136 3136 3136 3135 3135 3135 3135 3135 3135 3134 3134 3134 3134 3133 3133 3133 3132 3132 3131 3131 3131 3130 3130 3129 3129 3128 3128 3127 3126 3126 3125 3125 3124 3124 3123 3122 3121 3121 3120 3119 3119 3118 3118 3117 3117 3116 3116 3115 3115 3114 3114 3113 3112 3111 3111 3110 3109 3108 3108 3107 3106 3105 3105 3105 3104 3104
3144 3144 3144 3144 3144 3144 3144 3144 3144 3144 3144 3144 3144 3143 3143 3142 3142 3142 3141 3141 3140 3140 3140 3139 3139 3139 3138 3138 3137 3137 3137 3136 3136 3136 3136 3135 3135 3135 3135 3135 3135 3134 3134 3134 3134 3133 3133 3133 3133 3133 3132 3132 3132 3131 3131 3130 3130 3130 3129 3129 3128 3128 3127 3127 3126 3125 3125 3124 3124 3123 3122 3122 3121 3120 3119 3119 3118 3117 3116 3116 3115 3115 3115 3114 3113 3113 3112 3112 3111 3110 3110 3109 3108 3107 3106 3105 3105 3104 3103 3103 3102 3102 3101
3143 3143 3143 3142 3142 3142 3142 3142 3142 3142 3142 3142 3142 3142 3141 3141 3140 3140 3140 3140 3139 3139 3138 3138 3138 3137 3137 3136 3136 3136 3135 3135 3135 3135 3135 3134 3134 3134 3134 3134 3133 3133 3133 3133 3133 3132 3132 3132 3132 3132 3131 3131 3131 3130 3130 3130 3129 3129 3128 3128 3127 3127 3126 3126 3125 3125 3124 3123 3122 3122 3121 3120 3120 3119 3118 3117 3116 3116 3115 3114 3114 3113 3113 3112 3111 3111 3110 3110 3109 3108 3108 3107 3106 3105 3105 3104 3103 3102 3101 3100 3100 3099 3099
3141 3141 3141 3141 3141 3141 3141 3141 3141 3141 3141 3141 3141 3140 3140 3140 3139 3139 3139 3138 3138 3137 3137 3137 3136 3136 3135 3135 3135 3135 3135 3134 3134 3134 3134 3133 3133 3133 3133 3133 3132 3132 3132 3132 3132 3131 3131 3131 3131 3130 3130 3130 3130 3130 3129 3129 3128 3128 3127 3127 3126 3126 3125 3125 3124 3123 3123 3122 3121 3120 3120 3119 3119 3118 3117 3116 3115 3115 3114 3113 3112 3111 3111 3110 3110 3109 3108 3108 3107 3106 3105 3105 3104 3103 3102 3101 3100 3100 3099 3098 3097 3097 3096
3139 3139 3139 3139 3139 3139 3139 3139 3140 3140 3140 3140 3139 3139 3139 3138 3138 3137 3137 3137 3136 3136 3136 3135 3135 3135 3134 3134 3134 3134 3133 3133 3133 3133 3132 3132 3132 3132 3132 3131 3131 3131 3131 3131 3131 3130 3130 3130 3130 3130 3129 3129 3129 3128 3128 3128 3127 3127 3126 3126 3125 3125 3124 3123 3123 3122 3122 3121 3120 3120 3119 3118 3117 3116 3116 3115 3114 3113 3112 3111 3111 3110 3109 3109 3108 3107 3106 3105 3105 3104 3103 3102 3102 3101 3100 3099 3098 3097 3097 3096 3095 3094 3094
3138 3138 3138 3138 3138 3138 3138 3138 3138 3138 3138 3138 3138 3137 3137 3136 3136 3136 3135 3135 3135 3135 3134 3134 3134 3133 3133 3133 3132 3132 3132 3132 3132 3131 3131 3131 3131 3130 3130 3130 3130 3130 3130 3130 3130 3130 3130 3129 3129 3129 3128 3128 3128 3127 3127 3126 3126 3126 3125 3125 3124 3123 3123 3122 3122 3121 3120 3120 3119 3118 3118 3117 3116 3115 3114 3113 3112 3112 3111 3110 3109 3108 3108 3107 3106 3105 3105 3104 3103 3102 3101 3100 3099 3098 3098 3097 3096 3095 3094 3093 3093 3092 3091
3136 3136 3136 3136 3136 3136 3136 3136 3136 3136 3136 3136 3136 3135 3135 3135 3135 3134 3134 3134 3134 3133 3133 3133 3132 3132 3132 3131 3131 3131 3130 3130 3130 3130 3130 3130 3130 3129 3129 3129 3129 3129 3129 3129 3129 3129 3129 3128 3128 3128 3127 3127 3127 3126 3126 3125 3125 3125 3124 3123 3123 3122 3122 3121 3120 3120 3119 3119 3118 3117 3116 3115 3115 3114 3113 3112 3111 3110 3109 3108 3108 3107 3106 3105 3105 3104 3103 3102 3100 3100 3099 3098 3097 3096 3095 3094 3093 3092 3092 3091 3090 3089 3088
3134 3134 3134 3134 3134 3135 3135 3135 3135 3135 3135 3134 3134 3134 3134 3133 3133 3133 3133 3132 3132 3132 3131 3131 3131 3131 3130 3130 3130 3130 3129 3129 3129 3129 3129 3128 3128 3128 3128 3128 3128 3128 3128 3127 3127 3127 3127 3127 3127 3127 3126 3126 3125 3125 3125 3124 3124 3123 3123 3122 3122 3121 3120 3120 3119 3119 3118 3117 3116 3115 3115 3114 3113 3112 3111 3110 3110 3109 3108 3107 3106 3105 3105 3104 3103 3102 3101 3100 3099 3098 3096 3095 3095 3094 3093 3092 3091 3090 3089 3088 3087 3086 3086
3132 3132 3133 3133 3133 3133 3133 3133 3133 3133 3133 3132 3132 3132 3132 3132 3132 3131 3131 3131 3130 3130 3130 3130 3129 3129 3129 3129 3128 3128 3128 3128 3127 3127 3127 3127 3127 3127 3126 3126 3126 3126 3126 3126 3126 3126 3126 3126 3126 3125 3125 3125 3125 3124 3124 3123 3123 3122 3121 3121 3120 3120 3119 3119 3118 3117 3116 3116 3115 3114 3113 3112 3111 3110 3110 3109 3108 3107 3106 3105 3105 3104 3103 3102 3101 3100 3099 3098 3097 3096 3095 3093 3092 3091 3090 3090 3089 3088 3087 3086 3085 3084 3083
3130 3130 3131 3131 3131 3131 3131 3131 3131 3131 3130 3131 3130 3130 3130 3130 3130 3130 3130 3129 3129 3129 3129 3128 3128 3128 3127 3127 3127 3126 3126 3126 3126 3126 3125 3125 3125 3125 3125 3125 3125 3125 3125 3125 3125 3125 3125 3125 3125 3124 3124 3124 3123 3123 3122 3122 3121 3121 3120 3120 3119 3119 3118 3117 3116 3116 3115 3114 3113 3112 3111 3110 3110 3109 3108 3107 3106 3105 3104 3104 3103 3102 3101 3100 3100 3098 3097 3096 3095 3094 3093 3092 3090 3089 3088 3087 3086 3085 3085 3084 3083 3082 3081
3129 3129 3129 3129 3129 3129 3129 3129 3129 3129 3129 3129 3129 3129 3129 3128 3128 3128 3128 3128 3127 3127 3127 3127 3126 3126 3126 3126 3125 3125 3125 3125 3125 3124 3124 3124 3124 3124 3124 3123 3123 3123 3123 3123 3123 3123 3123 3123 3123 3123 3122 3122 3122 3121 3121 3120 3120 3120 3119 3118 3118 3117 3116 3115 3115 3114 3113 3113 3112 3111 3110 3109 3108 3107 3106 3105 3104 3103 3103 3102 3101 3100 3100 3098 3097 3096 3095 3094 3093 3092 3091 3090 3089 3088 3086 3085 3085 3083 3082 3081 3080 3079 3078
3127 3127 3127 3127 3127 3127 3127 3127 3127 3127 3127 3127 3127 3127 3127 3126 3126 3126 3126 3126 3126 3126 3125 3125 3125 3125 3125 3124 3124 3124 3123 3123 3123 3123 3122 3122 3122 3122 3122 3122 3122 3121 3121 3121 3121 3122 3121 3121 3122 3121 3121 3121 3120 3120 3120 3119 3119 3118 3117 3117 3116 3115 3115 3114 3113 3113 3112 3111 3110 3109 3108 3107 3106 3105 3104 3103 3102 3101 3101 3100 3099 3098 3097 3096 3095 3094 3093 3092 3091 3090 3089 3088 3087 3086 3085 3084 3083 3081 3080 3079 3078 3077 3076
3125 3125 3125 3125 3125 3125 3125 3125 3125 3125 3125 3125 3125 3125 3125 3125 3125 3125 3124 3124 3124 3124 3124 3124 3123 3123 3123 3123 3122 3122 3122 3121 3121 3121 3121 3120 3121 3121 3121 3120 3120 3120 3120 3120 3120 3120 3120 3120 3120 3120 3119 3119 3119 3118 3118 3117 3117 3116 3116 3115 3115 3114 3113 3112 3112 3111 3110 3109 3108 3107 3106 3105 3104 3103 3102 3101 3100 3099 3099 3098 3097 3096 3095 3094 3093 3092 3091 3090 3089 3088 3087 3086 3085 3084 3083 3082 3081 3080 3079 3077 3076 3075 3074
3123 3123 3123 3123 3123 3124 3123 3123 3123 3123 3123 3123 3123 3123 3123 3123 3123 3123 3123 3123 3122 3122 3122 3122 3121 3121 3121 3121 3120 3120 3120 3120 3120 3120 3119 3119 3119 3119 3119 3119 3119 3119 3119 3118 3118 3118 3118 3118 3118 3118 3118 3117 3117 3116 3116 3116 3115 3115 3114 3114 3113 3112 3111 3111 3110 3109 3108 3107 3106 3105 3104 3103 3102 3101 3100 3099 3098 3097 3096 3096 3095 3094 3093 3092 3091 3090 3089 3088 3086 3085 3084 3083 3082 3081 3080 3080 3079 3078 3077 3075 3075 3073 3072
3120 3121 3121 3121 3121 3121 3121 3121 3121 3121 3121 3121 3121 3121 3121 3121 3121 3121 3121 3120 3120 3120 3120 3120 3120 3120 3120 3119 3119 3119 3119 3118 3118 3118 3118 3117 3117 3117 3117 3117 3117 3117 3117 3117 3117 3116 3116 3116 3116 3116 3116 3115 3115 3115 3114 3114 3113 3113 3112 3112 3111 3110 3110 3109 3108 3107 3106 3105 3105 3103 3102 3101 3100 3099 3098 3097 3096 3095 3094 3093 3092 3091 3090 3089 3088 3087 3086 3085 3084 3083 3082 3081 3080 3079 3078 3077 3076 3075 3074 3073 3072 3071 3070
3119 3119 3119 3119 3119 3120 3120 3120 3119 3119 3119 3119 3119 3119 3120 3120 3119 3119 3119 3119 3119 3118 3118 3118 3118 3118 3118 3118 3117 3117 3117 3117 3117 3116 3116 3115 3115 3115 3115 3115 3115 3115 3115 3115 3115 3115 3115 3114 3114 3114 3114 3114 3113 3112 3112 3112 3111 3111 3110 3110 3109 3109 3108 3107 3106 3105 3105 3104 3103 3101 3100 3099 3098 3096 3095 3095 3094 3093 3092 3091 3090 3089 3087 3086 3085 3085 3084 3082 3081 3080 3079 3078 3077 3076 3075 3074 3073 3073 3072 3071 3070 3069 3068
3116 3116 3117 3117 3117 3117 3118 3117 3117 3117 3117 3117 3117 3118 3118 3118 3117 3117 3117 3117 3117 3116 3116 3116 3116 3116 3116 3116 3115 3115 3115 3115 3115 3115 3114 3114 3113 3113 3114 3114 3114 3114 3113 3113 3113 3113 3113 3113 3112 3112 3112 3112 3111 3111 3110 3110 3109 3109 3108 3108 3107 3106 3106 3105 3104 3103 3103 3102 3100 3100 3098 3097 3095 3094 3093 3092 3091 3090 3089 3088 3087 3086 3085 3084 3083 3082 3081 3080 3079 3077 3076 3075 3074 3073 3072 3071 3071 3070 3069 3068 3067 3066 3065
3114 3114 3115 3115 3115 3115 3115 3115 3115 3115 3115 3115 3115 3115 3115 3115 3115 3116 3116 3115 3115 3115 3114 3114 3114 3114 3114 3114 3114 3114 3113 3113 3113 3113 3112 3112 3112 3111 3112 3112 3112 3112 3112 3111 3111 3111 3111 3110 3110 3110 3110 3110 3110 3109 3108 3108 3107 3106 3106 3105 3105 3105 3104 3103 3102 3101 3100 3100 3099 3097 3096 3095 3094 3092 3091 3090 3089 3088 3087 3086 3085 3083 3082 3081 3080 3079 3078 3077 3076 3075 3073 3072 3071 3070 3070 3069 3068 3067 3066 3065 3065 3064 3063